Waarnemingen

Advertentie
Mijn weer
Aviemore, Groot Brittannië (3063): temperatuur & dauwpunt: 26.03.2020 18:00:00 - 01.04.2020 18:00:00 (BST)Aviemore, Groot Brittannië (3063): temperatuur -20cm & temperatuur -100cm: 26.03.2020 18:00:00 - 01.04.2020 18:00:00 (BST)Aviemore, Groot Brittannië (3063): windsnelheid & windstoten: 26.03.2020 18:00:00 - 01.04.2020 18:00:00 (BST)Aviemore, Groot Brittannië (3063): windrichting: 26.03.2020 18:00:00 - 01.04.2020 18:00:00 (BST)Aviemore, Groot Brittannië (3063): luchtdruk: 26.03.2020 18:00:00 - 01.04.2020 18:00:00 (BST)Aviemore, Groot Brittannië (3063): zicht: 26.03.2020 18:00:00 - 01.04.2020 18:00:00 (BST)Aviemore, Groot Brittannië (3063): Zonneschijnduur: 26.03.2020 18:00:00 - 01.04.2020 18:00:00 (BST)Aviemore, Groot Brittannië (3063): neerslag: 26.03.2020 18:00:00 - 01.04.2020 18:00:00 (BST)
Datum & Tijd tt [°C] td [°C] tt -20cm [°C] tt -100cm [°C] ff [km/u] ff [kn] fx [km/u] fx [kn] dd ppp [hPa] vv [km] sd [min] rr [mm]
01.04.2020 18:00:00 9,5 3,7 - - 8 4 - - W 1015,0 45 36 -
01.04.2020 17:00:00 9,3 4,3 - - 9 5 - - WZW 1015,8 30 36 0,0
01.04.2020 16:00:00 10,4 4,1 - - 13 7 - - WZW 1015,7 50 42 0,0
01.04.2020 15:00:00 9,0 2,7 - - 15 8 - - ZW 1016,6 45 36 0,0
01.04.2020 14:00:00 9,2 3,1 - - 18 10 - - WZW 1017,0 21 30 0,0
01.04.2020 13:00:00 8,0 2,3 - - 13 7 48 26 WZW 1017,7 30 0 0,0
01.04.2020 12:00:00 7,2 1,6 - - 13 7 - - ZW 1018,3 28 0 0,0
01.04.2020 11:00:00 6,8 1,2 - - 13 7 - - ZW 1019,4 40 0 0,0
01.04.2020 10:00:00 6,7 1,4 5,7 4,7 11 6 - - ZZW 1019,8 45 18 0,0
01.04.2020 09:00:00 5,1 1,5 - - 11 6 - - ZW 1021,1 45 0 0,0
01.04.2020 08:00:00 3,6 1,2 - - 8 4 - - ZZW 1021,7 45 0 0,0
01.04.2020 07:00:00 3,9 0,8 - - 8 4 - - ZZW 1022,3 50 0 0,0
01.04.2020 06:00:00 3,6 0,7 - - 5 3 - - ZZW 1023,1 50 0 0,0
01.04.2020 05:00:00 3,0 0,8 - - 5 3 - - ZZW 1023,8 35 0 0,0
01.04.2020 04:00:00 3,3 1,2 - - 4 2 - - ZZW 1024,9 21 0 0,0
01.04.2020 03:00:00 3,3 0,8 - - 8 4 - - ZW 1025,7 50 0 0,0
01.04.2020 02:00:00 4,1 0,8 - - 8 4 - - WZW 1026,3 40 0 0,0
01.04.2020 01:00:00 4,2 1,3 - - 5 3 - - ZW 1027,4 40 - 0,0
01.04.2020 00:00:00 4,3 1,2 - - 5 3 - - ZZW 1028,2 40 0 0,0
31.03.2020 23:00:00 4,5 1,2 - - 4 2 - - ZZW 1029,2 45 0 0,0
31.03.2020 22:00:00 5,0 1,2 - - 4 2 - - W 1029,8 45 0 0,0
31.03.2020 21:00:00 5,2 1,3 - - 4 2 - - Z 1030,4 35 0 0,0
31.03.2020 20:00:00 6,0 1,5 - - 8 4 - - W 1030,4 30 0 0,0
31.03.2020 19:00:00 6,6 1,8 - - 8 4 - - WNW 1030,8 35 6 0,0
31.03.2020 18:00:00 6,3 2,2 - - 5 3 - - NNO 1031,3 45 12 0,2
31.03.2020 17:00:00 7,1 2,1 - - 4 2 - - Z 1031,6 45 6 -
31.03.2020 16:00:00 7,5 1,3 - - 4 2 - - ZZW 1032,1 35 6 0,0
31.03.2020 15:00:00 8,0 -0,1 - - 8 4 - - NW 1032,8 40 30 0,0
31.03.2020 14:00:00 7,4 2,4 - - 5 3 - - NNO 1033,4 50 24 0,0
31.03.2020 13:00:00 7,7 1,0 - - 8 4 - - W 1033,7 45 6 0,0
31.03.2020 12:00:00 7,1 1,5 - - 9 5 - - WZW 1034,2 45 18 0,0
31.03.2020 11:00:00 7,9 2,9 - - 8 4 - - W 1034,5 35 18 0,0
31.03.2020 10:00:00 5,1 2,7 5,5 4,5 4 2 - - ZZW 1035,7 45 0 0,0
31.03.2020 09:00:00 4,1 2,2 - - 5 3 - - ZZW 1036,1 30 0 0,0
31.03.2020 08:00:00 2,8 1,9 - - 4 2 - - ZZW 1036,8 40 0 0,0
31.03.2020 07:00:00 2,2 1,3 - - 0 0 - - N 1036,9 11 0 0,0
31.03.2020 06:00:00 2,3 1,3 - - 2 1 - - WZW 1036,8 40 0 0,0
31.03.2020 05:00:00 2,4 1,1 - - 4 2 - - WZW 1036,9 40 0 0,0
31.03.2020 04:00:00 2,9 1,5 - - 2 1 - - WZW 1037,0 40 0 0,0
31.03.2020 03:00:00 3,6 1,3 - - 4 2 - - WNW 1037,5 30 0 0,0
31.03.2020 02:00:00 3,2 1,5 - - 4 2 - - W 1037,8 30 0 0,0
31.03.2020 01:00:00 3,7 1,5 - - 4 2 - - WNW 1038,2 28 - 0,0
31.03.2020 00:00:00 3,9 1,5 - - 4 2 - - NW 1038,4 29 0 0,0
30.03.2020 23:00:00 4,0 2,1 - - 5 3 - - WNW 1038,7 25 0 0,0
30.03.2020 22:00:00 4,2 2,7 - - 4 2 - - NNW 1039,0 13 0 0,0
30.03.2020 21:00:00 4,4 3,0 - - 4 2 - - NW 1038,8 22 0 0,0
30.03.2020 20:00:00 4,9 3,2 - - 4 2 - - NNO 1038,4 16 0 0,6
30.03.2020 19:00:00 5,5 3,3 - - 8 4 - - NNO 1038,4 16 0 0,2
30.03.2020 18:00:00 6,3 3,6 - - 5 3 - - NNW 1038,3 40 0 0,4
30.03.2020 17:00:00 6,9 4,5 - - 5 3 - - N 1038,0 14 12 0,4
30.03.2020 16:00:00 6,6 3,8 - - 11 6 - - N 1038,5 8 36 0,6
30.03.2020 15:00:00 6,5 4,2 - - 9 5 - - NNO 1038,8 10 18 1,0
30.03.2020 14:00:00 8,6 3,8 - - 9 5 - - N 1038,8 50 18 0,0
30.03.2020 13:00:00 6,7 2,7 - - 8 4 - - N 1039,5 4,2 0 0,0
30.03.2020 12:00:00 6,3 2,7 - - 9 5 - - NNO 1039,9 19 0 0,0
30.03.2020 11:00:00 5,9 3,4 - - 8 4 - - N 1040,2 29 0 0,0
30.03.2020 10:00:00 5,1 3,1 5,0 4,5 4 2 - - ZO 1040,7 40 0 0,2
30.03.2020 09:00:00 4,8 3,2 - - 4 2 - - ZZW 1040,7 6 0 0,2
30.03.2020 08:00:00 4,3 2,5 - - 2 1 - - N 1040,7 10 0 0,0
30.03.2020 07:00:00 4,5 2,1 - - 5 3 - - WNW 1040,8 29 0 0,2
30.03.2020 06:00:00 4,5 1,9 - - 5 3 - - NNO 1040,7 21 0 0,0
30.03.2020 05:00:00 4,2 2,1 - - 4 2 - - NW 1041,1 29 0 0,0
30.03.2020 04:00:00 4,0 2,1 - - 4 2 - - Z 1041,3 18 0 0,0
30.03.2020 03:00:00 3,9 2,9 - - 4 2 - - ZW 1041,9 30 0 0,0
30.03.2020 02:00:00 3,8 2,8 - - 2 1 - - WZW 1042,4 13 0 0,2
30.03.2020 01:00:00 4,1 2,6 - - 4 2 - - NW 1042,8 23 - 0,2
30.03.2020 00:00:00 3,9 2,5 - - 4 2 - - Z 1043,4 13 0 0,4
29.03.2020 23:00:00 3,9 2,3 - - 4 2 - - NNO 1043,8 16 0 0,2
29.03.2020 22:00:00 4,3 1,7 - - 4 2 - - N 1044,0 24 0 0,0
29.03.2020 21:00:00 4,3 1,4 - - 4 2 - - OZO 1044,3 35 0 0,0
29.03.2020 20:00:00 4,3 1,5 - - 4 2 - - NW 1044,7 28 0 0,0
29.03.2020 19:00:00 5,0 0,5 - - 4 2 - - NW 1044,9 30 0 0,0
29.03.2020 18:00:00 4,8 1,0 - - 5 3 - - ZW 1045,3 16 0 0,0
29.03.2020 17:00:00 5,2 -0,6 - - 5 3 - - NNW 1046,1 24 0 0,0
29.03.2020 16:00:00 5,4 -2,1 - - 9 5 - - NW 1046,5 40 0 0,0
29.03.2020 15:00:00 5,8 -2,7 - - 8 4 - - WNW 1046,9 45 6 0,0
29.03.2020 14:00:00 5,4 -3,7 - - 8 4 - - N 1047,7 35 0 0,0
29.03.2020 13:00:00 5,3 -4,3 - - 9 5 - - N 1047,8 40 0 0,0
29.03.2020 12:00:00 4,2 -4,9 - - 9 5 - - N 1048,7 45 6 0,0
29.03.2020 11:00:00 3,3 -5,4 - - 8 4 - - WNW 1048,8 45 0 0,0
29.03.2020 10:00:00 1,9 -5,5 5,0 4,4 5 3 - - N 1049,4 50 0 0,0
29.03.2020 09:00:00 1,1 -6,0 - - 4 2 - - NNO 1049,2 40 0 0,0
29.03.2020 08:00:00 0,5 -6,1 - - 2 1 - - WNW 1049,2 50 0 0,0
29.03.2020 07:00:00 0,6 -6,9 - - 5 3 - - N 1048,9 45 0 0,0
29.03.2020 06:00:00 0,5 -6,5 - - 9 5 - - N 1048,9 45 0 0,0
29.03.2020 05:00:00 0,6 -5,6 - - 8 4 - - N 1049,1 30 0 0,0
29.03.2020 04:00:00 0,7 -4,9 - - 9 5 - - N 1049,2 30 0 0,0
29.03.2020 03:00:00 1,0 -6,5 - - 13 7 - - N 1048,9 50 0 0,0
29.03.2020 02:00:00 0,7 -6,5 - - 8 4 - - N 1048,6 35 0 0,0
29.03.2020 01:00:00 0,7 -3,9 - - 11 6 - - N 1048,5 20 - 0,0
29.03.2020 00:00:00 1,1 -5,4 - - 11 6 - - NNO 1048,0 35 0 0,0
28.03.2020 23:00:00 0,9 -4,9 - - 8 4 - - NNO 1047,6 30 0 0,0
28.03.2020 22:00:00 0,9 -5,6 - - 9 5 - - N 1047,2 30 0 0,0
28.03.2020 21:00:00 1,1 -5,5 - - 11 6 - - N 1046,6 30 0 0,0
28.03.2020 20:00:00 1,8 -4,5 - - 11 6 - - NNO 1045,8 24 0 0,0
28.03.2020 19:00:00 2,5 -3,1 - - 16 9 - - NNO 1044,6 16 0 0,0
28.03.2020 18:00:00 2,6 -2,0 - - 18 10 - - NO 1044,1 18 12 0,0
28.03.2020 17:00:00 1,0 -2,4 - - 26 14 46 25 NNO 1044,2 1,0 36 0,0
28.03.2020 16:00:00 3,6 -4,0 - - 24 13 - - NNO 1042,8 35 6 0,0
28.03.2020 15:00:00 3,1 -1,5 - - 13 7 - - NO 1042,7 27 6 0,0
28.03.2020 14:00:00 3,8 -2,6 - - 16 9 - - NO 1042,4 27 0 0,4
28.03.2020 13:00:00 4,3 -2,8 - - 22 12 - - NNO 1041,9 35 18 0,0
28.03.2020 12:00:00 3,4 -1,8 - - 18 10 - - NNO 1041,5 40 0 0,0
28.03.2020 11:00:00 3,1 -0,3 - - 16 9 - - NO 1040,8 35 0 0,0
28.03.2020 10:00:00 3,7 -0,2 5,4 4,2 11 6 - - NNO 1040,0 19 0 0,0
28.03.2020 09:00:00 3,2 0,3 - - 5 3 - - N 1039,5 20 0 0,0
28.03.2020 08:00:00 2,8 0,3 - - 8 4 - - N 1038,9 10 0 0,0
28.03.2020 07:00:00 2,9 0,3 - - 5 3 - - NNW 1038,3 16 0 0,0
28.03.2020 06:00:00 3,4 1,6 - - 8 4 - - NNW 1038,0 15 0 0,2
28.03.2020 05:00:00 3,6 1,2 - - 5 3 - - NNW 1037,8 18 0 0,0
28.03.2020 04:00:00 3,2 1,5 - - 5 3 - - N 1037,6 25 0 0,2
28.03.2020 03:00:00 2,8 1,7 - - 4 2 - - N 1037,3 10 0 0,0
28.03.2020 02:00:00 2,5 1,0 - - 2 1 - - WNW 1036,9 30 0 0,0
28.03.2020 01:00:00 2,9 0,7 - - 2 1 - - ZZO 1036,5 45 - 0,0
28.03.2020 00:00:00 3,3 0,7 - - 5 3 - - NO 1036,1 40 0 0,0
27.03.2020 23:00:00 3,1 0,4 - - 2 1 - - WNW 1035,7 50 0 0,0
27.03.2020 22:00:00 4,4 1,0 - - 2 1 - - NW 1035,2 35 0 0,0
27.03.2020 21:00:00 5,1 0,4 - - 8 4 - - NW 1034,6 50 0 0,0
27.03.2020 20:00:00 5,8 0,6 - - 4 2 - - N 1033,9 45 0 0,0
27.03.2020 19:00:00 7,5 0,2 - - 4 2 - - N 1033,1 45 0 0,0
27.03.2020 18:00:00 8,0 -0,3 - - 5 3 - - ONO 1032,5 40 0 0,0
27.03.2020 17:00:00 8,2 -0,5 - - 11 6 - - NO 1032,4 40 6 0,0
27.03.2020 16:00:00 8,7 -0,9 - - 8 4 - - NO 1032,1 40 18 0,0
27.03.2020 15:00:00 8,2 0,4 - - 8 4 - - O 1032,1 50 12 0,0
27.03.2020 14:00:00 8,1 3,1 - - 8 4 - - O 1032,2 45 24 0,0
27.03.2020 13:00:00 7,1 2,5 - - 8 4 - - NO 1032,4 35 0 0,0
27.03.2020 12:00:00 6,6 2,7 - - 8 4 - - NNO 1032,2 30 0 0,0
27.03.2020 11:00:00 6,3 3,3 - - 9 5 - - NNO 1031,8 45 0 0,0
27.03.2020 10:00:00 5,5 4,0 5,2 4,0 8 4 - - NO 1031,6 30 0 0,0
27.03.2020 09:00:00 4,7 4,3 - - 5 3 - - NNO 1031,0 13 0 0,0
27.03.2020 08:00:00 4,3 3,9 - - 2 1 - - NNO 1030,4 8 0 0,2
27.03.2020 07:00:00 4,2 3,8 - - 4 2 - - NO 1030,2 2,5 0 0,0
27.03.2020 06:00:00 4,5 4,2 - - 4 2 - - NO 1029,7 2,4 0 0,4
27.03.2020 05:00:00 4,6 4,2 - - 2 1 - - ONO 1029,5 2,5 0 0,2
27.03.2020 04:00:00 4,6 4,2 - - 2 1 - - O 1029,2 7 0 0,0
27.03.2020 03:00:00 4,7 4,3 - - 2 1 - - NNO 1028,9 10 0 0,0
27.03.2020 02:00:00 4,8 4,3 - - 2 1 - - NO 1028,6 8 0 0,0
27.03.2020 01:00:00 4,8 4,3 - - 0 0 - - N 1028,6 5 - 0,0
27.03.2020 00:00:00 4,8 4,3 - - 0 0 - - N 1028,9 5 0 0,0
26.03.2020 23:00:00 4,9 4,3 - - 2 1 - - NO 1028,7 3,4 0 0,2
26.03.2020 22:00:00 5,1 4,5 - - 2 1 - - NNO 1028,5 2,3 0 0,2
26.03.2020 21:00:00 5,5 4,7 - - 2 1 - - N 1028,4 2,9 0 0,2
26.03.2020 20:00:00 5,9 5,1 - - 4 2 - - N 1028,1 2,6 0 0,0
26.03.2020 19:00:00 6,3 5,5 - - 4 2 - - N 1027,5 3,4 0 0,0
26.03.2020 18:00:00 - - - - - - - - - - - - -

tt = temperatuur
td = dauwpunt
tt -20cm = temperatuur -20cm
tt -100cm = temperatuur -100cm
ff = windsnelheid
fx = windstoten
dd = windrichting
ppp = luchtdruk
vv = zicht
sd = Zonneschijnduur
rr = neerslag

Weerstations in de omgeving